Date,Installs,Update checks
2019-02-19,5,1
2019-02-20,3,2
2019-02-21,5,6
2019-02-22,10,3
2019-02-23,8,7
2019-02-24,3,5
2019-02-25,7,14
2019-02-26,4,13
2019-02-27,8,11
2019-02-28,10,16
2019-03-01,10,16
2019-03-02,5,23
2019-03-03,4,18
2019-03-04,5,23
2019-03-05,8,21
2019-03-06,7,21
2019-03-07,6,26
2019-03-08,4,25
2019-03-09,4,29
2019-03-10,3,19
2019-03-11,3,27
2019-03-12,3,29
2019-03-13,1,25
2019-03-14,2,29
2019-03-15,4,30
2019-03-16,8,35
2019-03-17,0,28
2019-03-18,5,34
2019-03-19,5,36
2019-03-20,4,44
2019-03-21,1,36
2019-03-22,4,41
2019-03-23,3,41
2019-03-24,3,40
2019-03-25,0,35
2019-03-26,3,40
2019-03-27,5,49
2019-03-28,4,39
2019-03-29,3,56
2019-03-30,2,43
2019-03-31,1,43
2019-04-01,0,49
2019-04-02,1,54
2019-04-03,2,49
2019-04-04,1,48
2019-04-05,3,53
2019-04-06,3,48
2019-04-07,3,43
2019-04-08,1,62
2019-04-09,0,64
2019-04-10,2,59
2019-04-11,4,50
2019-04-12,1,58
2019-04-13,3,52
2019-04-14,2,55
2019-04-15,2,57
2019-04-16,1,49
2019-04-17,1,58
2019-04-18,1,55
2019-04-19,5,63
2019-04-20,4,63
2019-04-21,3,61
2019-04-22,2,70
2019-04-23,2,65
2019-04-24,4,74
2019-04-25,7,69
2019-04-26,8,71
2019-04-27,3,70
2019-04-28,3,72
2019-04-29,6,68
2019-04-30,5,62
2019-05-01,3,75
2019-05-02,1,55
2019-05-03,4,68
2019-05-04,7,74
2019-05-05,8,74
2019-05-06,5,79
2019-05-07,3,74
2019-05-08,2,73
2019-05-09,2,84
2019-05-10,2,76
2019-05-11,1,80
2019-05-12,2,84
2019-05-13,2,75
2019-05-14,2,81
2019-05-15,6,76
2019-05-16,1,85
2019-05-17,0,78
2019-05-18,1,82
2019-05-19,1,76
2019-05-20,1,85
2019-05-21,6,75
2019-05-22,2,80
2019-05-23,7,83
2019-05-24,2,86
2019-05-25,3,79
2019-05-26,1,83
2019-05-27,2,76
2019-05-28,3,83
2019-05-29,2,88
2019-05-30,2,82
2019-05-31,2,87
2019-06-01,3,76
2019-06-02,5,83
2019-06-03,3,84
2019-06-04,0,91
2019-06-05,3,73
2019-06-06,0,70
2019-06-07,1,74
2019-06-08,1,76
2019-06-09,1,84
2019-06-10,0,85
2019-06-11,1,85
2019-06-12,0,89
2019-06-13,3,86
2019-06-14,0,80
2019-06-15,1,87
2019-06-16,1,69
2019-06-17,2,76
2019-06-18,1,76
2019-06-19,2,67
2019-06-20,1,87
2019-06-21,2,67
2019-06-22,2,64
2019-06-23,2,72
2019-06-24,0,75
2019-06-25,3,66
2019-06-26,3,72
2019-06-27,2,75
2019-06-28,2,74
2019-06-29,1,75
2019-06-30,3,74
2019-07-01,6,69
2019-07-02,4,69
2019-07-03,1,64
2019-07-04,1,81
2019-07-05,4,76
2019-07-06,4,77
2019-07-07,5,71
2019-07-08,1,83
2019-07-09,0,83
2019-07-10,2,76
2019-07-11,10,90
2019-07-12,1,71
2019-07-13,1,74
2019-07-14,3,75
2019-07-15,2,82
2019-07-16,13,77
2019-07-17,20,91
2019-07-18,28,97
2019-07-19,24,101
2019-07-20,28,103
2019-07-21,24,109
2019-07-22,22,135
2019-07-23,26,115
2019-07-24,27,126
2019-07-25,28,133
2019-07-26,16,148
2019-07-27,15,131
2019-07-28,16,136
2019-07-29,9,168
2019-07-30,2,142
2019-07-31,3,161
2019-08-01,8,159
2019-08-02,4,162
2019-08-03,6,133
2019-08-04,2,134
2019-08-05,7,160
2019-08-06,6,147
2019-08-07,5,165
2019-08-08,4,156
2019-08-09,11,149
2019-08-10,5,144
2019-08-11,4,160
2019-08-12,3,153
2019-08-13,4,165
2019-08-14,3,132
2019-08-15,5,166
2019-08-16,6,154
2019-08-17,6,159
2019-08-18,4,150
2019-08-19,0,163
2019-08-20,1,154
2019-08-21,3,171
2019-08-22,4,154
2019-08-23,7,152
2019-08-24,1,157
2019-08-25,1,143
2019-08-26,0,143
2019-08-27,1,156
2019-08-28,2,172
2019-08-29,0,152
2019-08-30,7,176
2019-08-31,2,137
2019-09-01,7,139
2019-09-02,6,157
2019-09-03,3,163
2019-09-04,2,175
2019-09-05,2,155
2019-09-06,2,152
2019-09-07,3,136
2019-09-08,3,150
2019-09-09,3,157
2019-09-10,2,163
2019-09-11,3,149
2019-09-12,1,153
2019-09-13,1,126
2019-09-14,1,139
2019-09-15,2,149
2019-09-16,3,159
2019-09-17,0,139
2019-09-18,1,169
2019-09-19,4,146
2019-09-20,6,170
2019-09-21,1,143
2019-09-22,1,151
2019-09-23,0,164
2019-09-24,3,167
2019-09-25,3,148
2019-09-26,3,159
2019-09-27,3,143
2019-09-28,2,148
2019-09-29,3,152
2019-09-30,1,153
2019-10-01,2,140
2019-10-02,3,137
2019-10-03,1,140
2019-10-04,2,142
2019-10-05,1,148
2019-10-06,2,137
2019-10-07,2,143
2019-10-08,4,165
2019-10-09,3,163
2019-10-10,4,156
2019-10-11,4,150
2019-10-12,4,156
2019-10-13,2,142
2019-10-14,1,147
2019-10-15,0,140
2019-10-16,0,154
2019-10-17,1,155
2019-10-18,0,159
2019-10-19,2,136
2019-10-20,3,134
2019-10-21,0,152
2019-10-22,1,150
2019-10-23,2,159
2019-10-24,1,163
2019-10-25,1,146
2019-10-26,2,142
2019-10-27,1,141
2019-10-28,3,148
2019-10-29,2,163
2019-10-30,1,160
2019-10-31,2,143
2019-11-01,1,159
2019-11-02,1,144
2019-11-03,1,132
2019-11-04,1,174
2019-11-05,2,159
2019-11-06,0,168
2019-11-07,0,146
2019-11-08,1,160
2019-11-09,0,135
2019-11-10,0,149
2019-11-11,0,145
2019-11-12,0,164
2019-11-13,1,160
2019-11-14,0,160
2019-11-15,0,138
2019-11-16,0,152
2019-11-17,1,137
2019-11-18,0,167
2019-11-19,1,153
2019-11-20,3,145
2019-11-21,2,156
2019-11-22,1,141
2019-11-23,2,138
2019-11-24,2,144
2019-11-25,2,152
2019-11-26,1,154
2019-11-27,0,153
2019-11-28,0,151
2019-11-29,0,143
2019-11-30,1,143
2019-12-01,1,118
2019-12-02,0,143
2019-12-03,1,148
2019-12-04,0,149
2019-12-05,2,145
2019-12-06,2,139
2019-12-07,1,132
2019-12-08,0,148
2019-12-09,0,168
2019-12-10,1,149
2019-12-11,0,159
2019-12-12,0,154
2019-12-13,0,139
2019-12-14,1,142
2019-12-15,0,142
2019-12-16,0,157
2019-12-17,1,154
2019-12-18,2,166
2019-12-19,0,142
2019-12-20,2,150
2019-12-21,1,151
2019-12-22,3,134
2019-12-23,1,162
2019-12-24,1,160
2019-12-25,4,142
2019-12-26,3,160
2019-12-27,3,162
2019-12-28,2,158
2019-12-29,3,155
2019-12-30,3,163
2019-12-31,1,156
2020-01-01,1,150
2020-01-02,1,161
2020-01-03,1,169
2020-01-04,3,150
2020-01-05,4,145
2020-01-06,1,161
2020-01-07,4,156
2020-01-08,2,155
2020-01-09,2,156
2020-01-10,3,158
2020-01-11,0,148
2020-01-12,0,155
2020-01-13,1,167
2020-01-14,4,152
2020-01-15,0,178
2020-01-16,4,163
2020-01-17,1,169
2020-01-18,1,143
2020-01-19,1,143
2020-01-20,2,174
2020-01-21,3,151
2020-01-22,3,141
2020-01-23,6,150
2020-01-24,2,149
2020-01-25,1,126
2020-01-26,3,137
2020-01-27,1,136
2020-01-28,1,162
2020-01-29,8,151
2020-01-30,5,141
2020-01-31,2,148
2020-02-01,0,149
2020-02-02,1,147
2020-02-03,0,141
2020-02-04,2,160
2020-02-05,1,171
2020-02-06,1,153
2020-02-07,0,179
2020-02-08,2,49
2020-02-09,2,92
2020-02-10,0,167
2020-02-11,1,166
2020-02-12,2,154
2020-02-13,3,160
2020-02-14,3,149
2020-02-15,3,153
2020-02-16,6,153
2020-02-17,2,155
2020-02-18,2,159
2020-02-19,5,155
2020-02-20,4,179
2020-02-21,3,157
2020-02-22,3,151
2020-02-23,4,157
2020-02-24,5,162
2020-02-25,1,174
2020-02-26,4,167
2020-02-27,2,169
2020-02-28,0,165
2020-02-29,3,181
2020-03-01,1,171
2020-03-02,2,179
2020-03-03,1,180
2020-03-04,0,157
2020-03-05,1,160
2020-03-06,5,180
2020-03-07,3,166
2020-03-08,1,169
2020-03-09,0,170
2020-03-10,1,173
2020-03-11,0,166
2020-03-12,1,181
2020-03-13,1,170
2020-03-14,0,170
2020-03-15,1,170
2020-03-16,0,163
2020-03-17,2,163
2020-03-18,3,167
2020-03-19,2,164
2020-03-20,2,170
2020-03-21,1,156
2020-03-22,3,151
2020-03-23,0,168
2020-03-24,2,146
2020-03-25,5,172
2020-03-26,2,164
2020-03-27,3,166
2020-03-28,2,163
2020-03-29,1,155
2020-03-30,2,167
2020-03-31,3,158
2020-04-01,0,165
2020-04-02,2,159
2020-04-03,0,167
2020-04-04,1,157
2020-04-05,0,147
2020-04-06,3,164
2020-04-07,4,159
2020-04-08,4,159
2020-04-09,2,179
2020-04-10,2,155
2020-04-11,3,153
2020-04-12,4,146
2020-04-13,2,162
2020-04-14,1,170
2020-04-15,1,162
2020-04-16,1,154
2020-04-17,0,154
2020-04-18,2,151
2020-04-19,1,141
2020-04-20,1,164
2020-04-21,2,156
2020-04-22,1,162
2020-04-23,2,162
2020-04-24,2,166
2020-04-25,5,156
2020-04-26,4,159
2020-04-27,1,164
2020-04-28,0,174
2020-04-29,3,190
2020-04-30,4,171
2020-05-01,1,159
2020-05-02,2,138
2020-05-03,2,145
2020-05-04,5,160
2020-05-05,2,157
2020-05-06,2,155
2020-05-07,3,162
2020-05-08,2,173
2020-05-09,4,167
2020-05-10,2,149
2020-05-11,2,164
2020-05-12,1,172
2020-05-13,2,161
2020-05-14,3,173
2020-05-15,2,170
2020-05-16,1,138
2020-05-17,0,150
2020-05-18,0,164
2020-05-19,1,185
2020-05-20,1,150
2020-05-21,1,161
2020-05-22,1,176
2020-05-23,6,158
2020-05-24,2,152
2020-05-25,1,162
2020-05-26,3,158
2020-05-27,0,158
2020-05-28,1,162
2020-05-29,1,160
2020-05-30,1,145
2020-05-31,1,172
2020-06-01,0,162
2020-06-02,2,165
2020-06-03,1,170
2020-06-04,2,141
2020-06-05,3,161
2020-06-06,0,156
2020-06-07,1,161
2020-06-08,2,168
2020-06-09,1,152
2020-06-10,2,166
2020-06-11,2,146
2020-06-12,2,159
2020-06-13,2,149
2020-06-14,0,153
2020-06-15,1,163
2020-06-16,2,151
2020-06-17,0,163
2020-06-18,1,153
2020-06-19,1,151
2020-06-20,1,148
2020-06-21,0,133
2020-06-22,4,146
2020-06-23,3,154
2020-06-24,1,162
2020-06-25,1,142
2020-06-26,0,145
2020-06-27,0,138
2020-06-28,0,155
2020-06-29,3,146
2020-06-30,2,151
2020-07-01,1,140
2020-07-02,0,172
2020-07-03,0,148
2020-07-04,2,126
2020-07-05,1,149
2020-07-06,3,167
2020-07-07,0,146
2020-07-08,1,156
2020-07-09,1,157
2020-07-10,0,144
2020-07-11,0,140
2020-07-12,2,141
2020-07-13,1,153
2020-07-14,1,152
2020-07-15,0,137
2020-07-16,2,149
2020-07-17,2,155
2020-07-18,0,146
2020-07-19,1,134
2020-07-20,0,154
2020-07-21,1,147
2020-07-22,1,154
2020-07-23,2,133
2020-07-24,3,150
2020-07-25,0,132
2020-07-26,1,151
2020-07-27,2,158
2020-07-28,2,143
2020-07-29,2,154
2020-07-30,1,160
2020-07-31,0,150
2020-08-01,1,147
2020-08-02,1,128
2020-08-03,1,142
2020-08-04,1,138
2020-08-05,0,145
2020-08-06,0,141
2020-08-07,0,154
2020-08-08,1,143
2020-08-09,2,139
2020-08-10,2,162
2020-08-11,2,147
2020-08-12,4,146
2020-08-13,0,140
2020-08-14,0,146
2020-08-15,1,142
2020-08-16,0,153
2020-08-17,1,156
2020-08-18,0,152
2020-08-19,2,144
2020-08-20,4,153
2020-08-21,2,162
2020-08-22,1,150
2020-08-23,3,156
2020-08-24,3,154
2020-08-25,1,160
2020-08-26,2,154
2020-08-27,2,146
2020-08-28,3,144
2020-08-29,1,139
2020-08-30,4,134
2020-08-31,1,146
2020-09-01,3,136
2020-09-02,1,168
2020-09-03,0,155
2020-09-04,0,163
2020-09-05,1,148
2020-09-06,3,153
2020-09-07,5,143
2020-09-08,0,164
2020-09-09,1,154
2020-09-10,0,144
2020-09-11,1,140
2020-09-12,0,157
2020-09-13,1,146
2020-09-14,1,147
2020-09-15,1,160
2020-09-16,0,150
2020-09-17,3,164
2020-09-18,0,149
2020-09-19,2,145
2020-09-20,2,143
2020-09-21,4,155
2020-09-22,2,163
2020-09-23,0,149
2020-09-24,0,166
2020-09-25,0,148
2020-09-26,4,140
2020-09-27,1,148
2020-09-28,2,150
2020-09-29,2,162
2020-09-30,0,150
2020-10-01,0,141
2020-10-02,1,126
2020-10-03,4,126
2020-10-04,2,139
2020-10-05,3,136
2020-10-06,0,164
2020-10-07,2,132
2020-10-08,1,169
2020-10-09,1,134
2020-10-10,0,159
2020-10-11,1,149
2020-10-12,1,156
2020-10-13,0,160
2020-10-14,1,159
2020-10-15,2,158
2020-10-16,1,153
2020-10-17,0,143
2020-10-18,5,145
2020-10-19,1,158
2020-10-20,3,157
2020-10-21,5,156
2020-10-22,2,148
2020-10-23,2,148
2020-10-24,2,148
2020-10-25,0,138
2020-10-26,1,165
2020-10-27,2,148
2020-10-28,1,160
2020-10-29,1,160
2020-10-30,1,161
2020-10-31,1,158
2020-11-01,0,135
2020-11-02,3,150
2020-11-03,0,154
2020-11-04,3,160
2020-11-05,0,157
2020-11-06,0,152
2020-11-07,0,130
2020-11-08,0,153
2020-11-09,2,152
2020-11-10,3,154
2020-11-11,1,162
2020-11-12,3,141
2020-11-13,0,160
2020-11-14,1,131
2020-11-15,1,148
2020-11-16,1,146
2020-11-17,2,166
2020-11-18,1,150
2020-11-19,0,141
2020-11-20,0,138
2020-11-21,3,130
2020-11-22,1,155
2020-11-23,0,142
2020-11-24,0,153
2020-11-25,2,160
2020-11-26,3,151
2020-11-27,2,151
2020-11-28,1,139
2020-11-29,2,152
2020-11-30,1,165
2020-12-01,0,146
2020-12-02,2,157
2020-12-03,1,145
2020-12-04,0,157
2020-12-05,5,149
2020-12-06,4,136
2020-12-07,1,149
2020-12-08,4,149
2020-12-09,1,164
2020-12-10,1,161
2020-12-11,1,164
2020-12-12,3,140
2020-12-13,1,141
2020-12-14,0,168
2020-12-15,0,151
2020-12-16,2,144
2020-12-17,0,159
2020-12-18,1,156
2020-12-19,3,133
2020-12-20,0,155
2020-12-21,5,154
2020-12-22,1,151
2020-12-23,2,164
2020-12-24,0,146
2020-12-25,1,150
2020-12-26,2,150
2020-12-27,1,155
2020-12-28,0,168
2020-12-29,3,142
2020-12-30,0,157
2020-12-31,2,161
2021-01-01,1,137
2021-01-02,1,147
2021-01-03,0,130
2021-01-04,0,151
2021-01-05,1,144
2021-01-06,0,166
2021-01-07,0,163
2021-01-08,1,152
2021-01-09,2,143
2021-01-10,0,140
2021-01-11,0,145
2021-01-12,1,146
2021-01-13,1,150
2021-01-14,1,152
2021-01-15,0,148
2021-01-16,1,157
2021-01-17,2,145
2021-01-18,2,150
2021-01-19,0,152
2021-01-20,0,167
2021-01-21,1,153
2021-01-22,1,154
2021-01-23,2,162
2021-01-24,2,154
2021-01-25,0,175
2021-01-26,1,167
2021-01-27,0,167
2021-01-28,0,163
2021-01-29,0,154
2021-01-30,1,138
2021-01-31,1,149
2021-02-01,3,153
2021-02-02,0,164
2021-02-03,3,162
2021-02-04,1,165
2021-02-05,2,161
2021-02-06,2,143
2021-02-07,0,167
2021-02-08,2,150
2021-02-09,3,134
2021-02-10,0,127
2021-02-11,0,118
2021-02-12,0,102
2021-02-13,0,116
2021-02-14,1,97
2021-02-15,0,165
2021-02-16,2,155
2021-02-17,3,167
2021-02-18,1,172
2021-02-19,0,165
2021-02-20,0,174
2021-02-21,0,160
2021-02-22,1,145
2021-02-23,0,165
2021-02-24,0,156
2021-02-25,0,171
2021-02-26,2,157
2021-02-27,0,160
2021-02-28,0,158
2021-03-01,3,173
2021-03-02,1,168
2021-03-03,1,178
2021-03-04,0,163
2021-03-05,1,173
2021-03-06,0,173
2021-03-07,0,153
2021-03-08,0,134
2021-03-09,0,116
2021-03-10,0,149
2021-03-11,1,120
2021-03-12,0,134
2021-03-13,2,114
2021-03-14,0,126
2021-03-15,1,122
2021-03-16,0,141
2021-03-17,0,133
2021-03-18,0,125
2021-03-19,3,130
2021-03-20,0,113
2021-03-21,0,101
2021-03-22,0,112
2021-03-23,0,108
2021-03-24,1,120
2021-03-25,0,138
2021-03-26,0,139
2021-03-27,1,109
2021-03-28,0,104
2021-03-29,0,109
2021-03-30,0,111
2021-03-31,1,84
2021-04-01,0,113
2021-04-02,1,106
2021-04-03,1,93
2021-04-04,0,109
2021-04-05,0,109
2021-04-06,0,133
2021-04-07,0,124
2021-04-08,0,127
2021-04-09,1,125
2021-04-10,1,103
2021-04-11,0,103
2021-04-12,0,88
2021-04-13,0,117
2021-04-14,0,125
2021-04-15,0,126
2021-04-16,2,172
2021-04-17,0,164
2021-04-18,0,158
2021-04-19,0,169
2021-04-20,0,169
2021-04-21,2,166
2021-04-22,0,161
2021-04-23,1,164
2021-04-24,0,155
2021-04-25,2,159
2021-04-26,1,162
2021-04-27,1,152
2021-04-28,1,155
2021-04-29,0,168
2021-04-30,0,153
2021-05-01,0,139
2021-05-02,1,144
2021-05-03,1,149
2021-05-04,1,154
2021-05-05,1,159
2021-05-06,1,167
2021-05-07,0,167
2021-05-08,0,157
2021-05-09,0,152
2021-05-10,0,163
2021-05-11,0,160
2021-05-12,1,168
2021-05-13,0,163
2021-05-14,1,165
2021-05-15,0,158
2021-05-16,0,150
2021-05-17,0,152
2021-05-18,1,157
2021-05-19,1,155
2021-05-20,1,163
2021-05-21,0,163
2021-05-22,0,149
2021-05-23,0,151
2021-05-24,0,163
2021-05-25,2,166
2021-05-26,0,151
2021-05-27,2,153
2021-05-28,0,155
2021-05-29,0,141
2021-05-30,0,156
2021-05-31,1,154
2021-06-01,3,149
2021-06-02,0,166
2021-06-03,0,166
2021-06-04,1,157
2021-06-05,0,109
2021-06-06,0,151
2021-06-07,0,145
2021-06-08,1,157
2021-06-09,2,153
2021-06-10,1,158
2021-06-11,0,162
2021-06-12,1,155
2021-06-13,2,164
2021-06-14,0,158
2021-06-15,1,155
2021-06-16,0,149
2021-06-17,1,169
2021-06-18,0,158
2021-06-19,1,159
2021-06-20,0,155
2021-06-21,0,160
2021-06-22,1,157
2021-06-23,0,162
2021-06-24,0,135
2021-06-25,1,168
2021-06-26,0,145
2021-06-27,0,143
2021-06-28,0,154
2021-06-29,0,153
2021-06-30,0,151
2021-07-01,0,145
2021-07-02,0,154
2021-07-03,1,148
2021-07-04,0,137
2021-07-05,0,156
2021-07-06,1,146
2021-07-07,0,156
2021-07-08,0,158
2021-07-09,0,155
2021-07-10,1,135
2021-07-11,0,141
2021-07-12,0,159
2021-07-13,0,148
2021-07-14,1,144
2021-07-15,0,141
2021-07-16,1,159
2021-07-17,0,146
2021-07-18,2,8
2021-07-19,0,39
2021-07-20,0,147
2021-07-21,0,137
2021-07-22,0,151
2021-07-23,0,155
2021-07-24,1,136
2021-07-25,1,153
2021-07-26,2,155
2021-07-27,1,143
2021-07-28,0,163
2021-07-29,1,162
2021-07-30,0,145
2021-07-31,0,161
2021-08-01,0,144
2021-08-02,0,141
2021-08-03,0,140
2021-08-04,0,145
2021-08-05,0,148
2021-08-06,1,146
2021-08-07,0,142
2021-08-08,1,148
2021-08-09,1,148
2021-08-10,0,145
2021-08-11,1,160
2021-08-12,0,132
2021-08-13,0,169
2021-08-14,0,140
2021-08-15,0,146
2021-08-16,0,137
2021-08-17,0,143
2021-08-18,0,159
2021-08-19,1,155
2021-08-20,1,146
2021-08-21,1,142
2021-08-22,0,152
2021-08-23,1,160
2021-08-24,0,155
2021-08-25,2,158
2021-08-26,0,147
2021-08-27,0,159
2021-08-28,1,145
2021-08-29,0,144
2021-08-30,0,150
2021-08-31,0,161
2021-09-01,2,164
2021-09-02,0,146
2021-09-03,0,167
2021-09-04,0,152
2021-09-05,0,135
2021-09-06,1,156
2021-09-07,0,141
2021-09-08,0,152
2021-09-09,2,159
2021-09-10,0,162
2021-09-11,3,139
2021-09-12,0,136
2021-09-13,2,142
2021-09-14,1,152
2021-09-15,0,163
2021-09-16,1,160
2021-09-17,0,156
2021-09-18,1,156
2021-09-19,1,151
2021-09-20,0,151
2021-09-21,0,135
2021-09-22,0,147
2021-09-23,2,150
2021-09-24,1,131
2021-09-25,1,138
2021-09-26,1,139
2021-09-27,1,147
2021-09-28,2,143
2021-09-29,1,154
2021-09-30,1,146
2021-10-01,0,129
2021-10-02,1,143
2021-10-03,0,133
2021-10-04,1,132
2021-10-05,0,131
2021-10-06,0,141
2021-10-07,0,138
2021-10-08,0,151
2021-10-09,0,151
2021-10-10,0,147
2021-10-11,0,149
2021-10-12,0,156
2021-10-13,1,143
2021-10-14,1,159
2021-10-15,1,160
2021-10-16,1,139
2021-10-17,0,143
2021-10-18,0,146
2021-10-19,1,144
2021-10-20,0,155
2021-10-21,1,154
2021-10-22,0,158
2021-10-23,0,133
2021-10-24,0,147
2021-10-25,0,146
2021-10-26,0,159
2021-10-27,1,163
2021-10-28,0,151
2021-10-29,3,154
2021-10-30,1,148
2021-10-31,1,150
2021-11-01,1,148
2021-11-02,0,139
2021-11-03,0,147
2021-11-04,1,131
2021-11-05,0,142
2021-11-06,0,137
2021-11-07,0,138
2021-11-08,0,158
2021-11-09,2,155
2021-11-10,0,143
2021-11-11,0,126
2021-11-12,1,138
2021-11-13,0,139
2021-11-14,0,141
2021-11-15,1,146
2021-11-16,1,144
2021-11-17,1,150
2021-11-18,0,144
2021-11-19,0,146
2021-11-20,2,133
2021-11-21,0,130
2021-11-22,0,135
2021-11-23,1,140
2021-11-24,0,144
2021-11-25,0,135
2021-11-26,0,155
2021-11-27,0,130
2021-11-28,0,144
2021-11-29,1,135
2021-11-30,1,153
2021-12-01,0,152
2021-12-02,0,142
2021-12-03,1,147
2021-12-04,0,131
2021-12-05,1,137
2021-12-06,0,135
2021-12-07,0,134
2021-12-08,0,141
2021-12-09,0,136
2021-12-10,1,131
2021-12-11,0,137
2021-12-12,0,141
2021-12-13,1,126
2021-12-14,0,140
2021-12-15,1,151
2021-12-16,1,133
2021-12-17,0,139
2021-12-18,1,128
2021-12-19,0,123
2021-12-20,0,138
2021-12-21,0,134
2021-12-22,1,137
2021-12-23,1,133
2021-12-24,0,143
2021-12-25,0,127
2021-12-26,0,127
2021-12-27,1,143
2021-12-28,1,133
2021-12-29,0,145
2021-12-30,0,136
2021-12-31,0,123
2022-01-01,1,124
2022-01-02,1,128
2022-01-03,0,130
2022-01-04,0,138
2022-01-05,1,128
2022-01-06,0,140
2022-01-07,0,131
2022-01-08,0,139
2022-01-09,0,10
2022-01-10,1,0
2022-01-11,0,136
2022-01-12,0,131
2022-01-13,0,136
2022-01-14,0,133
2022-01-15,1,130
2022-01-16,0,140
2022-01-17,2,134
2022-01-18,1,145
2022-01-19,1,141
2022-01-20,1,141
2022-01-21,3,144
2022-01-22,2,138
2022-01-23,0,131
2022-01-24,2,144
2022-01-25,1,144
2022-01-26,4,132
2022-01-27,3,130
2022-01-28,1,139
2022-01-29,0,138
2022-01-30,0,128
2022-01-31,0,119
2022-02-01,1,125
2022-02-02,0,109
2022-02-03,0,127
2022-02-04,1,131
2022-02-05,1,119
2022-02-06,1,141
2022-02-07,0,126
2022-02-08,1,136
2022-02-09,0,140
2022-02-10,1,143
2022-02-11,1,138
2022-02-12,1,128
2022-02-13,0,117
2022-02-14,2,131
2022-02-15,2,142
2022-02-16,1,127
2022-02-17,2,152
2022-02-18,2,126
2022-02-19,0,130
2022-02-20,0,125
2022-02-21,0,150
2022-02-22,0,137
2022-02-23,1,146
2022-02-24,0,136
2022-02-25,3,136
2022-02-26,0,146
2022-02-27,1,122
2022-02-28,0,134
2022-03-01,1,143
2022-03-02,0,138
2022-03-03,0,133
2022-03-04,4,133
2022-03-05,1,137
2022-03-06,0,133
2022-03-07,0,132
2022-03-08,0,134
2022-03-09,0,136
2022-03-10,0,145
2022-03-11,0,160
2022-03-12,1,127
2022-03-13,1,131
2022-03-14,1,140
2022-03-15,0,139
2022-03-16,4,140
2022-03-17,0,136
2022-03-18,0,148
2022-03-19,0,143
2022-03-20,2,134
2022-03-21,1,135
2022-03-22,0,124
2022-03-23,1,134
2022-03-24,3,144
2022-03-25,2,136
2022-03-26,0,133
2022-03-27,0,128
2022-03-28,2,126
2022-03-29,2,132
2022-03-30,1,138
2022-03-31,0,143
2022-04-01,0,140
2022-04-02,0,133
2022-04-03,1,129
2022-04-04,0,126
2022-04-05,2,137
2022-04-06,0,140
2022-04-07,0,135
2022-04-08,0,148
2022-04-09,0,119
2022-04-10,0,138
2022-04-11,2,141
2022-04-12,0,141
2022-04-13,0,127
2022-04-14,0,127
2022-04-15,0,133
2022-04-16,0,144
2022-04-17,0,131
2022-04-18,0,135
2022-04-19,1,122
2022-04-20,0,139
2022-04-21,2,140
2022-04-22,1,137
2022-04-23,0,118
2022-04-24,0,130
2022-04-25,1,134
2022-04-26,2,129
2022-04-27,0,122
2022-04-28,0,133
2022-04-29,0,130
2022-04-30,0,119
2022-05-01,0,117
2022-05-02,1,101
2022-05-03,0,126
2022-05-04,0,125
2022-05-05,0,119
2022-05-06,0,134
2022-05-07,0,134
2022-05-08,1,112
2022-05-09,0,118
2022-05-10,1,134
2022-05-11,0,121
2022-05-12,1,121
2022-05-13,1,133
2022-05-14,0,119
2022-05-15,0,125
2022-05-16,0,124
2022-05-17,5,129
2022-05-18,0,130
2022-05-19,1,121
2022-05-20,0,118
2022-05-21,1,119
2022-05-22,0,118
2022-05-23,0,117
2022-05-24,1,116
2022-05-25,1,115
2022-05-26,0,128
2022-05-27,1,136
2022-05-28,1,121
2022-05-29,2,124
2022-05-30,2,135
2022-05-31,1,137
2022-06-01,1,124
2022-06-02,0,126
2022-06-03,0,122
2022-06-04,0,127
2022-06-05,1,115
2022-06-06,1,126
2022-06-07,1,114
2022-06-08,1,124
2022-06-09,0,127
2022-06-10,0,128
2022-06-11,2,133
2022-06-12,0,115
2022-06-13,3,132
2022-06-14,0,128
2022-06-15,0,113
2022-06-16,0,121
2022-06-17,0,128
2022-06-18,0,111
2022-06-19,0,128
2022-06-20,1,129
2022-06-21,0,135
2022-06-22,0,118
2022-06-23,1,122
2022-06-24,0,125
2022-06-25,0,130
2022-06-26,1,114
2022-06-27,1,127
2022-06-28,1,118
2022-06-29,4,121
2022-06-30,0,121
2022-07-01,0,122
2022-07-02,0,117
2022-07-03,1,113
2022-07-04,0,124
2022-07-05,2,119
2022-07-06,2,121
2022-07-07,0,134
2022-07-08,2,121
2022-07-09,2,120
2022-07-10,0,122
2022-07-11,0,128
2022-07-12,0,122
2022-07-13,3,136
2022-07-14,3,132
2022-07-15,0,114
2022-07-16,2,119
2022-07-17,0,124
2022-07-18,0,124
2022-07-19,0,132
2022-07-20,2,122
2022-07-21,1,132
2022-07-22,0,127
2022-07-23,0,123
2022-07-24,1,82
2022-07-25,0,111
2022-07-26,0,126
2022-07-27,0,129
2022-07-28,1,123
2022-07-29,1,125
2022-07-30,1,114
2022-07-31,0,127
2022-08-01,0,126
2022-08-02,1,125
2022-08-03,3,124
2022-08-04,1,122
2022-08-05,1,119
2022-08-06,1,103
2022-08-07,1,116
2022-08-08,0,122
2022-08-09,1,123
2022-08-10,0,124
2022-08-11,0,124
2022-08-12,0,126
2022-08-13,3,124
2022-08-14,2,115
2022-08-15,1,111
2022-08-16,0,124
2022-08-17,1,123
2022-08-18,1,123
2022-08-19,1,123
2022-08-20,0,119
2022-08-21,1,107
2022-08-22,1,125
2022-08-23,0,120
2022-08-24,0,123
2022-08-25,0,125
2022-08-26,0,127
2022-08-27,0,110
2022-08-28,0,102
2022-08-29,0,115
2022-08-30,1,112
2022-08-31,2,131
2022-09-01,0,118
2022-09-02,0,127
2022-09-03,0,114
2022-09-04,0,109
2022-09-05,0,125
2022-09-06,0,117
2022-09-07,0,127
2022-09-08,0,126
2022-09-09,0,129
2022-09-10,0,104
2022-09-11,0,108
2022-09-12,0,126
2022-09-13,0,125
2022-09-14,1,133
2022-09-15,1,133
2022-09-16,0,123
2022-09-17,0,129
2022-09-18,0,118
2022-09-19,0,118
2022-09-20,0,129
2022-09-21,1,123
2022-09-22,0,123
2022-09-23,1,127
2022-09-24,0,119
2022-09-25,0,110
2022-09-26,1,122
2022-09-27,0,130
2022-09-28,0,127
2022-09-29,0,121
2022-09-30,0,127
2022-10-01,0,110
2022-10-02,0,126
2022-10-03,2,122
2022-10-04,0,126
2022-10-05,1,116
2022-10-06,0,120
2022-10-07,0,125
2022-10-08,2,124
2022-10-09,1,127
2022-10-10,0,139
2022-10-11,0,124
2022-10-12,0,132
2022-10-13,0,130
2022-10-14,0,124
2022-10-15,0,116
2022-10-16,1,126
2022-10-17,0,121
2022-10-18,1,130
2022-10-19,0,130
2022-10-20,0,125
2022-10-21,1,120
2022-10-22,0,113
2022-10-23,1,126
2022-10-24,0,129
2022-10-25,0,125
2022-10-26,1,120
2022-10-27,0,120
2022-10-28,0,126
2022-10-29,0,114
2022-10-30,0,118
2022-10-31,0,117
2022-11-01,0,128
2022-11-02,0,108
2022-11-03,0,127
2022-11-04,2,124
2022-11-05,1,109
2022-11-06,1,109
2022-11-07,0,120
2022-11-08,3,129
2022-11-09,0,115
2022-11-10,2,127
2022-11-11,2,123
2022-11-12,0,98
2022-11-13,1,106
2022-11-14,0,120
2022-11-15,1,122
2022-11-16,0,127
2022-11-17,0,103
2022-11-18,0,114
2022-11-19,0,86
2022-11-20,0,105
2022-11-21,0,104
2022-11-22,0,109
2022-11-23,0,118
2022-11-24,0,120
2022-11-25,0,114
2022-11-26,0,98
2022-11-27,0,99
2022-11-28,0,108
2022-11-29,0,104
2022-11-30,0,109
2022-12-01,0,111
2022-12-02,0,103
2022-12-03,0,104
2022-12-04,0,110
2022-12-05,0,103
2022-12-06,1,96
2022-12-07,0,106
2022-12-08,0,109
2022-12-09,1,117
2022-12-10,0,88
2022-12-11,0,94
2022-12-12,0,110
2022-12-13,0,100
2022-12-14,1,88
2022-12-15,0,109
2022-12-16,1,97
2022-12-17,1,86
2022-12-18,0,106
2022-12-19,1,100
2022-12-20,0,99
2022-12-21,2,78
2022-12-22,0,103
2022-12-23,0,96
2022-12-24,1,96
2022-12-25,0,112
2022-12-26,1,98
2022-12-27,0,103
2022-12-28,0,109
2022-12-29,0,109
2022-12-30,0,106
2022-12-31,2,98
2023-01-01,0,98
2023-01-02,0,102
2023-01-03,0,117
2023-01-04,1,113
2023-01-05,0,127
2023-01-06,0,110
2023-01-07,0,111
2023-01-08,1,103